Regional Weather Roundup
Issued by NWS

Home | Current Version | Previous Version | Text Only | Print | Product List | Glossary Off
Versions: 1 2 3 4 5 6 7 8 9 10 11 12 13 14 15 16 17 18 19 20 21 22 23 24 25 26 27 28 29 30 31 32 33 34 35 36 37 38 39 40 41 42 43 44 45 46 47 48 49 50

000
ASUS45 KPSR 091110
RWRAZ

ARIZONA HOURLY REGIONAL WEATHER ROUNDUP
NATIONAL WEATHER SERVICE PHOENIX AZ
400 AM MST TUE FEB 09 2016

NOTE: FAIR INDICATES FEW OR NO CLOUDS BELOW 12,000 FEET WITH NO
SIGNIFICANT WEATHER AND/OR OBSTRUCTIONS TO VISIBILITY.

AZZ001>003-036-091200-
NORTHWEST ARIZONA

CITY           SKY/WX    TMP DP  RH WIND       PRES   REMARKS
BULLHEAD CITY  CLEAR     63  27  25 N24G30    30.26R
KINGMAN        CLEAR     46  24  42 E9        30.34F
$$

AZZ004>008-015-016-018-091200-
NORTH CENTRAL ARIZONA

CITY           SKY/WX    TMP DP  RH WIND       PRES   REMARKS
GRAND CANYON   PTCLDY    22  17  81 CALM      30.46F
WILLIAMS       PTCLDY    27  18  69 S7        30.47F WCI  19
PRESCOTT       PTCLDY    31  21  66 S5        30.37S WCI  26
FLAGSTAFF      CLEAR     40  15  36 NE13      30.43F WCI  32
PAYSON         CLEAR     48  16  27 NE15      30.35S
PAGE           CLEAR     32  24  72 CALM      30.46F
$$

AZZ009>014-017-091200-
NORTHEAST ARIZONA

CITY           SKY/WX    TMP DP  RH WIND       PRES   REMARKS
WINSLOW        MOCLDY    30  20  66 CALM      30.44S
SAINT JOHNS    CLEAR     27  19  72 S3        30.41F
WINDOW ROCK    CLEAR     24   0  35 CALM      30.43S
SHOW LOW       CLEAR     28  18  64 CALM      30.43F
$$

AZZ023-091200-
GREATER PHOENIX AREA

CITY           SKY/WX    TMP DP  RH WIND       PRES   REMARKS
PHOENIX        CLEAR     60  25  26 E10       30.15F
BUCKEYE        CLEAR     52  25  35 CALM      30.18S
LUKE AFB       CLEAR     55  26  33 NE2       30.15F
DEER VALLEY    CLEAR     57  23  26 N13       30.16F
SCOTTSDALE     CLEAR     63  21  20 CALM      30.18F
MESA-GATEWAY   CLEAR     52  28  40 E7        30.17S
$$

AZZ027-028-091200-
SOUTHWEST MARICOPA COUNTY AND PINAL COUNTY

CITY           SKY/WX    TMP DP  RH WIND       PRES   REMARKS
CASA GRANDE    CLEAR     52  25  35 CALM      30.16F
GILA BEND      FAIR      50  27  40 NE5       30.14S
$$

AZZ503-504-507>509-091200-
SOUTHEAST ARIZONA

CITY           SKY/WX    TMP DP  RH WIND       PRES   REMARKS
TUCSON         CLEAR     52  21  29 S3        30.19F
DAVIS-MONTHAN  CLEAR     52  21  29 VRB2      30.18S
NOGALES        CLEAR     47  17  30 VRB5      30.22S
SIERRA VISTA   CLEAR     39  18  42 S6        30.28S
DOUGLAS        PTCLDY    29  16  58 N5        30.28S WCI  24
SAFFORD        CLEAR     47  22  37 SE14      30.28F
$$

AZZ020-021-025-026-031-091200-
SOUTHWEST ARIZONA

CITY           SKY/WX    TMP DP  RH WIND       PRES   REMARKS
YUMA           CLEAR     66  25  21 N9        30.14S
$$

CAZ031-033-041-043-047-048-061-091200-
SOUTHERN CALIFORNIA

CITY           SKY/WX    TMP DP  RH WIND       PRES   REMARKS
DOWNTOWN L.A.  CLEAR     57  33  40 CALM      30.12R
L.A. AIRPORT   CLEAR     61  29  29 E3        30.12S
SAN DIEGO      CLEAR     59  30  33 VRB3      30.11S
BURBANK        CLEAR     56  26  31 NE3       30.13S
ONTARIO        CLEAR     52  28  39 N3        30.15S
RIVERSIDE      CLEAR     62  25  24 E6        30.16S
PALM SPRINGS   CLEAR     68  24  19 W6        30.20R
EL CENTRO NAS  CLEAR     51  25  36 W6        30.16R
IMPERIAL       CLEAR     51  28  41 W5        30.14R
BLYTHE         CLEAR     58  27  30 NE12      30.19S
NEEDLES        CLEAR     63  27  25 N15       30.25S
$$

NVZ020-UTZ003-091200-
SOUTHERN NEVADA-UTAH

CITY           SKY/WX    TMP DP  RH WIND       PRES   REMARKS
LAS VEGAS      CLEAR     48  28  46 W5        30.33F
SALT LAKE CITY PTCLDY    26  22  84 SE8       30.58F FOG     WCI  18
$$

NMZ009-TXZ055-091200-
NEW MEXICO-WEST TEXAS

CITY           SKY/WX    TMP DP  RH WIND       PRES   REMARKS
ALBUQUERQUE    CLOUDY    32  21  64 CALM      30.39F
EL PASO        PTCLDY    34  14  43 CALM      30.34F
$$


........................KEY........................
SKY/WX - SKY CONDITION/WEATHER
TMP    - TEMPERATURE IN FAHRENHEIT
DP     - DEW POINT IN FAHRENHEIT
RH     - RELATIVE HUMIDITY IN PERCENT
WIND   - DIRECTION AND SPEED IN MILES PER HOUR (MPH)
VRB    - VARIABLE WIND DIRECTION
PRES   - MEAN SEA LEVEL PRESSURE IN INCHES OF MERCURY
         F - FALLING PRESSURE   R - RISING PRESSURE
         S - STEADY PRESSURE
VSB    - VISIBILITY IN MILES
HX     - HEAT INDEX IN FAHRENHEIT
WCI    - WIND CHILL INDEX IN FAHRENHEIT
TC     - TEMPERATURE IN CELSIUS WHICH IS ALSO KNOWN AS
         TEMPERATURE IN CENTIGRADE
AFB    - AIR FORCE BASE
         LUKE AFB IS LUKE AIR FORCE BASE
         DAVIS-MONTHAN IS DAVIS-MONTHAN AIR FORCE BASE
NAS    - NAVAL AIR STATION
         EL CENTRO NAS IS EL CENTRO NAVAL AIR STATION
N/A    - NOT AVAILABLE





USA.gov is the U.S. government's official web portal to all federal, state and local government web resources and services.